Regional Weather Roundup
Issued by NWS

Home | Current Version | Previous Version | Graphics & Text | Print | Product List | Glossary On
Versions: 1 2 3 4 5 6 7 8 9 10 11 12 13 14 15 16 17 18 19 20 21 22 23 24 25 26 27 28 29 30 31 32 33 34 35 36 37 38 39 40 41 42 43 44 45 46 47 48 49 50
000
ASUS43 KIND 020009
RWRIN

WEATHER ROUNDUP FOR INDIANA
NATIONAL WEATHER SERVICE INDIANAPOLIS IN
800 PM EDT SUN MAY 01 2016

NOTE: "FAIR" INDICATES FEW OR NO CLOUDS BELOW 12,000 FEET WITH NO
SIGNIFICANT WEATHER AND/OR OBSTRUCTIONS TO VISIBILITY.

* - STATION DOES NOT REPORT WEATHER SUCH AS PRECIPITATION OR FOG.

+ - STATION NOT QUALITY CONTROLLED BY THE NATIONAL WEATHER SERVICE.
    USE DATA WITH CAUTION...ESPECIALLY DEWPOINT AND RELATIVE
    HUMIDITY OBSERVATIONS.

INZ001>003-010>013-019-020-020100-
NORTHWEST INDIANA

CITY           SKY/WX    TMP DP  RH WIND       PRES   REMARKS
GARY /AIRPORT/ CLOUDY    46  46 100 N8        29.96F FOG
KNOX *+        CLOUDY    54  46  76 NE8       29.93R
LA PORTE +     CLOUDY    55  55  98 NE7       29.94F
6HR MIN TEMP:  54; 6HR MAX TEMP:  58;

MONTICELLO +   CLOUDY    57  53  85 NE7       29.89S
6HR MIN TEMP:  57; 6HR MAX TEMP:  61;

RENSSELAER +   CLOUDY    54  52  94 N7        29.91F
VALPARAISO     CLOUDY    51  47  86 N8        29.93F
6HR MIN TEMP:  51; 6HR MAX TEMP:  56;


$$

LMZ046-743>745-020100-
SOUTHERN LAKE MICHIGAN

STATION/POSITION TIME  TEMP    WIND        PRES    WAVE
                       AIR SEA DIR/SP/G            HT
                 (UTC) (F)     (DEG/KT/KT) (MB)    (FT)
BURNS HARBOR     2317   46      40/ 10/ 12 1014.9S
MICHIGAN CITY    2300   46      10/ 12/ 13   N/A

$$

INZ004-005-014>016-021>024-020100-
NORTH CENTRAL INDIANA

CITY           SKY/WX    TMP DP  RH WIND       PRES   REMARKS
GOSHEN         CLOUDY    54  50  86 NE12      29.93F
6HR MIN TEMP:  54; 6HR MAX TEMP:  56;

LOGANSPORT +   CLOUDY    57  55  94 NE7       29.90F
PERU/GRISSOM   CLOUDY    61  59  94 NE15      29.88F
6HR MIN TEMP:  61; 6HR MAX TEMP:  66;

SOUTH BEND     CLOUDY    52  48  86 NE12      29.95R
6HR MIN TEMP:  52; 6HR MAX TEMP:  56;

WARSAW +       CLOUDY    54  52  94 E10       29.92F

$$

INZ006>009-017-018-025>027-020100-
NORTHEAST INDIANA

CITY           SKY/WX    TMP DP  RH WIND       PRES   REMARKS
ANGOLA *+      CLOUDY    52  39  62 NE12      29.95S
AUBURN +       CLOUDY    54  50  87 NE7       29.96R
FORT WAYNE     CLOUDY    56  53  90 NE13      29.94R
6HR MIN TEMP:  56; 6HR MAX TEMP:  63;

HUNTINGTON +   CLOUDY   N/A N/A N/A E9        29.92S

$$

INZ028-029-035-036-043>045-051>053-020100-
WEST CENTRAL INDIANA

CITY           SKY/WX    TMP DP  RH WIND       PRES   REMARKS
CRAWFORDSVL +  MOCLDY    68  61  79 CALM      29.84F
6HR MIN TEMP:  66; 6HR MAX TEMP:  71;

GREENCASTLE +  PTCLDY    70  61  73 CALM      29.85F
LAFAYETTE      PTCLDY    60  56  86 N9        29.86F
6HR MIN TEMP:  60; 6HR MAX TEMP:  68;

TERRE HAUTE    PTCLDY    70  60  70 N9        29.84F
6HR MIN TEMP:  69; 6HR MAX TEMP:  76; 6HR PCP: TRACE;


$$

INZ030>032-037>040-046>048-054>057-064-065-020100-
CENTRAL INDIANA

CITY           SKY/WX    TMP DP  RH WIND       PRES   REMARKS
CP ATTERBURY + PTCLDY    70  54  56 S7        29.86F
COLUMBUS       PTCLDY    64  61  88 S6        29.87F
FRANKFORT +      N/A     65  54  66 NE8       29.89S
6HR MIN TEMP:  65; 6HR MAX TEMP:  74;

GREENWOOD *+   PTCLDY    73  57  56 CALM      29.85F
INDIANAPOLIS   MOCLDY    73  57  57 CALM      29.83F
6HR MIN TEMP:  71; 6HR MAX TEMP:  77;

-EAGLE CREEK   PTCLDY    72  57  59 N3        29.84F
6HR MIN TEMP:  72; 6HR MAX TEMP:  76;

KOKOMO *+      MOCLDY    63  55  77 NE13      29.88F
6HR MIN TEMP:  63; 6HR MAX TEMP:  72;

SHELBYVILLE    PTCLDY    76  57  51 CALM      29.85F
6HR MIN TEMP:  73; 6HR MAX TEMP:  79;

ZIONSVILLE +   CLEAR     68  60  74 N3        29.86F
6HR MIN TEMP:  68; 6HR MAX TEMP:  73;


$$

INZ033-034-041-042-049-050-058-059-020100-
EAST CENTRAL INDIANA

CITY           SKY/WX    TMP DP  RH WIND       PRES   REMARKS
MUNCIE         MOCLDY    69  61  75 NE14      29.87F
6HR MIN TEMP:  69; 6HR MAX TEMP:  76;


$$

INZ060-061-067>069-081>083-085>088-020100-
SOUTHWEST INDIANA

CITY           SKY/WX    TMP DP  RH WIND       PRES   REMARKS
EVANSVILLE     CLEAR     75  63  66 SW9       29.86F
6HR MIN TEMP:  68; 6HR MAX TEMP:  79; 6HR PCP:  0.13;

HUNTINGBURG *+ CLEAR     73  64  73 S6        29.87S
6HR MIN TEMP:  70; 6HR MAX TEMP:  79;

WASHINGTON +   CLEAR     74  65  73 SW5       29.85F
6HR MIN TEMP:  74; 6HR MAX TEMP:  79;


$$

INZ062-063-066-070>080-084-089>092-020100-
SOUTH CENTRAL AND SOUTHEAST INDIANA

CITY           SKY/WX    TMP DP  RH WIND       PRES   REMARKS
BLOOMINGTON    CLEAR     70  59  68 S7        29.86F
6HR MIN TEMP:  70; 6HR MAX TEMP:  78;

MADISON *+     PTCLDY    66  59  77 CALM      29.91F
SEYMOUR +      CLOUDY    66  61  82 CALM      29.88F

$$





USA.gov is the U.S. government's official web portal to all federal, state and local government web resources and services.